Time,TemperatureF,DewpointF,PressureIn,WindDirection,WindDirectionDegrees,WindSpeedMPH,WindSpeedGustMPH,Humidity,HourlyPrecipIn,Conditions,Clouds,dailyrainin,SolarRadiationWatts/m^2,SoftwareType,DateUTC
2013-05-26 00:12:00,66.0,-29.0,-100.00,NE,39,3.0,5.0,0,0.00,,,0.00,0.000000,,2013-05-26 10:12:00,
2013-05-26 00:22:00,66.0,-29.0,-100.00,NE,39,3.0,5.0,0,0.00,,,0.00,0.000000,,2013-05-26 10:22:00,
2013-05-26 00:32:00,66.0,-29.0,-100.00,NE,39,3.0,5.0,0,0.00,,,0.00,0.000000,,2013-05-26 10:32:00,
2013-05-26 00:42:00,66.0,-29.0,-100.00,NE,39,3.0,5.0,0,0.00,,,0.00,0.000000,,2013-05-26 10:42:00,
2013-05-26 00:51:00,65.0,-30.0,-100.00,NNE,27,2.0,4.0,0,0.00,,,0.00,0.000000,,2013-05-26 10:51:00,
2013-05-26 01:11:00,65.0,-30.0,-100.00,NNE,27,2.0,4.0,0,0.00,,,0.00,0.000000,,2013-05-26 11:11:00,
2013-05-26 01:22:00,65.0,-30.0,-100.00,NNE,27,2.0,4.0,0,0.00,,,0.00,0.000000,,2013-05-26 11:22:00,
2013-05-26 01:32:00,65.0,-30.0,-100.00,NNE,27,2.0,4.0,0,0.00,,,0.00,0.000000,,2013-05-26 11:32:00,
2013-05-26 01:42:00,65.0,-30.0,-100.00,NNE,27,2.0,4.0,0,0.00,,,0.00,0.000000,,2013-05-26 11:42:00,
2013-05-26 01:51:00,65.0,-30.0,-100.00,NE,36,1.0,5.0,0,0.00,,,0.00,0.000000,,2013-05-26 11:51:00,
2013-05-26 02:11:00,65.0,-30.0,-100.00,NE,36,1.0,5.0,0,0.00,,,0.00,0.000000,,2013-05-26 12:11:00,
2013-05-26 02:21:00,65.0,-30.0,-100.00,NE,36,1.0,5.0,0,0.00,,,0.00,0.000000,,2013-05-26 12:21:00,
2013-05-26 02:32:00,65.0,-30.0,-100.00,NE,36,1.0,5.0,0,0.00,,,0.00,0.000000,,2013-05-26 12:32:00,
2013-05-26 02:41:00,65.0,-30.0,-100.00,NE,36,1.0,5.0,0,0.00,,,0.00,0.000000,,2013-05-26 12:41:00,
2013-05-26 02:51:00,64.0,-31.0,-100.00,NE,34,0.0,4.0,0,0.00,,,0.00,0.000000,,2013-05-26 12:51:00,
2013-05-26 03:11:00,64.0,-31.0,-100.00,NE,34,0.0,4.0,0,0.00,,,0.00,0.000000,,2013-05-26 13:11:00,
2013-05-26 03:21:00,64.0,-31.0,-100.00,NE,34,0.0,4.0,0,0.00,,,0.00,0.000000,,2013-05-26 13:21:00,
2013-05-26 03:32:00,64.0,-31.0,-100.00,NE,34,0.0,4.0,0,0.00,,,0.00,0.000000,,2013-05-26 13:32:00,
2013-05-26 03:42:00,64.0,-31.0,-100.00,NE,34,0.0,4.0,0,0.00,,,0.00,0.000000,,2013-05-26 13:42:00,
2013-05-26 03:51:00,63.0,-31.0,-100.00,ENE,77,0.0,2.0,0,0.00,,,0.00,0.000000,,2013-05-26 13:51:00,
2013-05-26 04:11:00,63.0,-31.0,-100.00,ENE,77,0.0,2.0,0,0.00,,,0.00,0.000000,,2013-05-26 14:11:00,
2013-05-26 04:21:00,63.0,-31.0,-100.00,ENE,77,0.0,2.0,0,0.00,,,0.00,0.000000,,2013-05-26 14:21:00,
2013-05-26 04:32:00,63.0,-31.0,-100.00,ENE,77,0.0,2.0,0,0.00,,,0.00,0.000000,,2013-05-26 14:32:00,
2013-05-26 04:41:00,63.0,-31.0,-100.00,ENE,77,0.0,2.0,0,0.00,,,0.00,0.000000,,2013-05-26 14:41:00,
2013-05-26 04:51:00,63.0,-31.0,-100.00,ENE,58,0.0,3.0,0,0.00,,,0.00,0.000000,,2013-05-26 14:51:00,
2013-05-26 05:12:00,63.0,-31.0,-100.00,ENE,58,0.0,3.0,0,0.00,,,0.00,0.000000,,2013-05-26 15:12:00,
2013-05-26 05:22:00,63.0,-31.0,-100.00,ENE,58,0.0,3.0,0,0.00,,,0.00,0.000000,,2013-05-26 15:22:00,
2013-05-26 05:33:00,63.0,-31.0,-100.00,ENE,58,0.0,3.0,0,0.00,,,0.00,0.000000,,2013-05-26 15:33:00,
2013-05-26 05:43:00,63.0,-31.0,-100.00,ENE,58,0.0,3.0,0,0.00,,,0.00,0.000000,,2013-05-26 15:43:00,
2013-05-26 05:51:00,62.0,-32.0,-100.00,NE,48,0.0,1.0,0,0.00,,,0.00,0.000000,,2013-05-26 15:51:00,
2013-05-26 06:12:00,62.0,-32.0,-100.00,NE,48,0.0,1.0,0,0.00,,,0.00,0.000000,,2013-05-26 16:12:00,
2013-05-26 06:23:00,62.0,-32.0,-100.00,NE,48,0.0,1.0,0,0.00,,,0.00,0.000000,,2013-05-26 16:23:00,
2013-05-26 06:33:00,62.0,-32.0,-100.00,NE,48,0.0,1.0,0,0.00,,,0.00,0.000000,,2013-05-26 16:33:00,
2013-05-26 06:42:00,62.0,-32.0,-100.00,NE,48,0.0,1.0,0,0.00,,,0.00,0.000000,,2013-05-26 16:42:00,
2013-05-26 06:51:00,64.0,-31.0,-100.00,NE,44,0.0,3.0,0,0.00,,,0.00,14.000000,,2013-05-26 16:51:00,
2013-05-26 07:11:00,64.0,-31.0,-100.00,NE,44,0.0,3.0,0,0.00,,,0.00,14.000000,,2013-05-26 17:11:00,
2013-05-26 07:22:00,64.0,-31.0,-100.00,NE,44,0.0,3.0,0,0.00,,,0.00,14.000000,,2013-05-26 17:22:00,
2013-05-26 07:32:00,64.0,-31.0,-100.00,NE,44,0.0,3.0,0,0.00,,,0.00,14.000000,,2013-05-26 17:32:00,
2013-05-26 07:42:00,64.0,-31.0,-100.00,NE,44,0.0,3.0,0,0.00,,,0.00,14.000000,,2013-05-26 17:42:00,
2013-05-26 07:51:00,69.0,-28.0,-100.00,NNE,29,1.0,4.0,0,0.00,,,0.00,110.000000,,2013-05-26 17:51:00,
2013-05-26 08:12:00,69.0,-28.0,-100.00,NNE,29,1.0,4.0,0,0.00,,,0.00,110.000000,,2013-05-26 18:12:00,
2013-05-26 08:21:00,69.0,-28.0,-100.00,NNE,29,1.0,4.0,0,0.00,,,0.00,110.000000,,2013-05-26 18:21:00,
2013-05-26 08:31:00,69.0,-28.0,-100.00,NNE,29,1.0,4.0,0,0.00,,,0.00,110.000000,,2013-05-26 18:31:00,
2013-05-26 08:42:00,69.0,-28.0,-100.00,NNE,29,1.0,4.0,0,0.00,,,0.00,110.000000,,2013-05-26 18:42:00,
2013-05-26 08:51:00,74.0,-25.0,-100.00,NE,34,3.0,6.0,0,0.00,,,0.00,511.000000,,2013-05-26 18:51:00,
2013-05-26 09:11:00,74.0,-25.0,-100.00,NE,34,3.0,6.0,0,0.00,,,0.00,511.000000,,2013-05-26 19:11:00,
2013-05-26 09:22:00,74.0,-25.0,-100.00,NE,34,3.0,6.0,0,0.00,,,0.00,511.000000,,2013-05-26 19:22:00,
2013-05-26 09:32:00,74.0,-25.0,-100.00,NE,34,3.0,6.0,0,0.00,,,0.00,511.000000,,2013-05-26 19:32:00,
2013-05-26 09:42:00,74.0,-25.0,-100.00,NE,34,3.0,6.0,0,0.00,,,0.00,511.000000,,2013-05-26 19:42:00,
2013-05-26 09:51:00,74.0,-25.0,-100.00,ENE,72,2.0,7.0,0,0.00,,,0.00,540.000000,,2013-05-26 19:51:00,
2013-05-26 10:11:00,74.0,-25.0,-100.00,ENE,72,2.0,7.0,0,0.00,,,0.00,540.000000,,2013-05-26 20:11:00,
2013-05-26 10:21:00,74.0,-25.0,-100.00,ENE,72,2.0,7.0,0,0.00,,,0.00,540.000000,,2013-05-26 20:21:00,
2013-05-26 10:32:00,74.0,-25.0,-100.00,ENE,72,2.0,7.0,0,0.00,,,0.00,540.000000,,2013-05-26 20:32:00,
2013-05-26 10:41:00,74.0,-25.0,-100.00,ENE,72,2.0,7.0,0,0.00,,,0.00,540.000000,,2013-05-26 20:41:00,
2013-05-26 10:51:00,78.0,-22.0,-100.00,NNE,19,3.0,7.0,0,0.00,,,0.00,670.000000,,2013-05-26 20:51:00,
2013-05-26 11:11:00,78.0,-22.0,-100.00,NNE,19,3.0,7.0,0,0.00,,,0.00,670.000000,,2013-05-26 21:11:00,
2013-05-26 11:22:00,78.0,-22.0,-100.00,NNE,19,3.0,7.0,0,0.00,,,0.00,670.000000,,2013-05-26 21:22:00,
2013-05-26 11:33:00,78.0,-22.0,-100.00,NNE,19,3.0,7.0,0,0.00,,,0.00,670.000000,,2013-05-26 21:33:00,
2013-05-26 11:43:00,78.0,-22.0,-100.00,NNE,19,3.0,7.0,0,0.00,,,0.00,670.000000,,2013-05-26 21:43:00,
2013-05-26 11:51:00,80.0,-21.0,-100.00,NE,50,3.0,8.0,0,0.00,,,0.00,819.000000,,2013-05-26 21:51:00,
2013-05-26 12:12:00,80.0,-21.0,-100.00,NE,50,3.0,8.0,0,0.00,,,0.00,819.000000,,2013-05-26 22:12:00,
2013-05-26 12:23:00,80.0,-21.0,-100.00,NE,50,3.0,8.0,0,0.00,,,0.00,819.000000,,2013-05-26 22:23:00,
2013-05-26 12:33:00,80.0,-21.0,-100.00,NE,50,3.0,8.0,0,0.00,,,0.00,819.000000,,2013-05-26 22:33:00,
2013-05-26 12:42:00,80.0,-21.0,-100.00,NE,50,3.0,8.0,0,0.00,,,0.00,819.000000,,2013-05-26 22:42:00,
2013-05-26 12:51:00,82.0,-20.0,-100.00,NE,41,3.0,9.0,0,0.00,,,0.00,1050.000000,,2013-05-26 22:51:00,
2013-05-26 13:11:00,82.0,-20.0,-100.00,NE,41,3.0,9.0,0,0.00,,,0.00,1050.000000,,2013-05-26 23:11:00,
2013-05-26 13:22:00,82.0,-20.0,-100.00,NE,41,3.0,9.0,0,0.00,,,0.00,1050.000000,,2013-05-26 23:22:00,
2013-05-26 13:32:00,82.0,-20.0,-100.00,NE,41,3.0,9.0,0,0.00,,,0.00,1050.000000,,2013-05-26 23:32:00,
2013-05-26 13:42:00,82.0,-20.0,-100.00,NE,41,3.0,9.0,0,0.00,,,0.00,1050.000000,,2013-05-26 23:42:00,
2013-05-26 13:51:00,76.0,-23.0,-100.00,NNE,23,2.0,7.0,0,0.00,,,0.00,360.000000,,2013-05-26 23:51:00,
2013-05-26 14:11:00,76.0,-23.0,-100.00,NNE,23,2.0,7.0,0,0.00,,,0.00,360.000000,,2013-05-27 00:11:00,
2013-05-26 14:21:00,76.0,-23.0,-100.00,NNE,23,2.0,7.0,0,0.00,,,0.00,360.000000,,2013-05-27 00:21:00,
2013-05-26 14:31:00,76.0,-23.0,-100.00,NNE,23,2.0,7.0,0,0.00,,,0.00,360.000000,,2013-05-27 00:31:00,
2013-05-26 14:41:00,76.0,-23.0,-100.00,NNE,23,2.0,7.0,0,0.00,,,0.00,360.000000,,2013-05-27 00:41:00,
2013-05-26 14:51:00,77.0,-23.0,-100.00,ENE,58,4.0,8.0,0,0.00,,,-99.99,407.000000,,2013-05-27 00:51:00,
2013-05-26 15:11:00,77.0,-23.0,-100.00,ENE,58,4.0,8.0,0,0.00,,,-99.99,407.000000,,2013-05-27 01:11:00,
2013-05-26 15:22:00,77.0,-23.0,-100.00,ENE,58,4.0,8.0,0,0.00,,,-99.99,407.000000,,2013-05-27 01:22:00,
2013-05-26 15:31:00,77.0,-23.0,-100.00,ENE,58,4.0,8.0,0,0.00,,,-99.99,407.000000,,2013-05-27 01:31:00,
2013-05-26 15:42:00,77.0,-23.0,-100.00,ENE,58,4.0,8.0,0,0.00,,,-99.99,407.000000,,2013-05-27 01:42:00,
2013-05-26 15:51:00,77.0,-23.0,-100.00,NE,40,1.0,8.0,0,0.00,,,0.00,595.000000,,2013-05-27 01:51:00,
2013-05-26 16:11:00,77.0,-23.0,-100.00,NE,40,1.0,8.0,0,0.00,,,0.00,595.000000,,2013-05-27 02:11:00,
2013-05-26 16:21:00,77.0,-23.0,-100.00,NE,40,1.0,8.0,0,0.00,,,0.00,595.000000,,2013-05-27 02:21:00,
2013-05-26 16:32:00,77.0,-23.0,-100.00,NE,40,1.0,8.0,0,0.00,,,0.00,595.000000,,2013-05-27 02:32:00,
2013-05-26 16:42:00,77.0,-23.0,-100.00,NE,40,1.0,8.0,0,0.00,,,0.00,595.000000,,2013-05-27 02:42:00,
2013-05-26 16:51:00,74.0,-25.0,-100.00,NE,37,3.0,9.0,0,0.00,,,0.00,331.000000,,2013-05-27 02:51:00,
2013-05-26 17:11:00,74.0,-25.0,-100.00,NE,37,3.0,9.0,0,0.00,,,0.00,331.000000,,2013-05-27 03:11:00,
2013-05-26 17:21:00,74.0,-25.0,-100.00,NE,37,3.0,9.0,0,0.00,,,0.00,331.000000,,2013-05-27 03:21:00,
2013-05-26 17:33:00,74.0,-25.0,-100.00,NE,37,3.0,9.0,0,0.00,,,0.00,331.000000,,2013-05-27 03:33:00,
2013-05-26 17:42:00,74.0,-25.0,-100.00,NE,37,3.0,9.0,0,0.00,,,0.00,331.000000,,2013-05-27 03:42:00,
2013-05-26 17:51:00,71.0,-26.0,-100.00,NNE,29,1.0,7.0,0,0.00,,,0.00,82.000000,,2013-05-27 03:51:00,
2013-05-26 18:12:00,71.0,-26.0,-100.00,NNE,29,1.0,7.0,0,0.00,,,0.00,82.000000,,2013-05-27 04:12:00,
2013-05-26 18:23:00,71.0,-26.0,-100.00,NNE,29,1.0,7.0,0,0.00,,,0.00,82.000000,,2013-05-27 04:23:00,
2013-05-26 18:33:00,71.0,-26.0,-100.00,NNE,29,1.0,7.0,0,0.00,,,0.00,82.000000,,2013-05-27 04:33:00,
2013-05-26 18:42:00,71.0,-26.0,-100.00,NNE,29,1.0,7.0,0,0.00,,,0.00,82.000000,,2013-05-27 04:42:00,
2013-05-26 18:51:00,70.0,-27.0,-100.00,NE,42,2.0,7.0,0,0.00,,,0.00,25.000000,,2013-05-27 04:51:00,
2013-05-26 19:12:00,70.0,-27.0,-100.00,NE,42,2.0,7.0,0,0.00,,,0.00,25.000000,,2013-05-27 05:12:00,
2013-05-26 19:22:00,70.0,-27.0,-100.00,NE,42,2.0,7.0,0,0.00,,,0.00,25.000000,,2013-05-27 05:22:00,
2013-05-26 19:32:00,70.0,-27.0,-100.00,NE,42,2.0,7.0,0,0.00,,,0.00,25.000000,,2013-05-27 05:32:00,
2013-05-26 19:42:00,70.0,-27.0,-100.00,NE,42,2.0,7.0,0,0.00,,,0.00,25.000000,,2013-05-27 05:42:00,
2013-05-26 19:51:00,68.0,-28.0,-100.00,NNW,341,1.0,4.0,0,0.00,,,-99.99,2.000000,,2013-05-27 05:51:00,
2013-05-26 20:11:00,68.0,-28.0,-100.00,NNW,341,1.0,4.0,0,0.00,,,-99.99,2.000000,,2013-05-27 06:11:00,
2013-05-26 20:21:00,68.0,-28.0,-100.00,NNW,341,1.0,4.0,0,0.00,,,-99.99,2.000000,,2013-05-27 06:21:00,
2013-05-26 20:32:00,68.0,-28.0,-100.00,NNW,341,1.0,4.0,0,0.00,,,-99.99,2.000000,,2013-05-27 06:32:00,
2013-05-26 20:41:00,68.0,-28.0,-100.00,NNW,341,1.0,4.0,0,0.00,,,-99.99,2.000000,,2013-05-27 06:41:00,
2013-05-26 20:51:00,67.0,-29.0,-100.00,NNE,19,1.0,3.0,0,0.00,,,0.00,0.000000,,2013-05-27 06:51:00,
2013-05-26 21:11:00,67.0,-29.0,-100.00,NNE,19,1.0,3.0,0,0.00,,,0.00,0.000000,,2013-05-27 07:11:00,
2013-05-26 21:21:00,67.0,-29.0,-100.00,NNE,19,1.0,3.0,0,0.00,,,0.00,0.000000,,2013-05-27 07:21:00,
2013-05-26 21:31:00,67.0,-29.0,-100.00,NNE,19,1.0,3.0,0,0.00,,,0.00,0.000000,,2013-05-27 07:31:00,
2013-05-26 21:41:00,67.0,-29.0,-100.00,NNE,19,1.0,3.0,0,0.00,,,0.00,0.000000,,2013-05-27 07:41:00,
2013-05-26 21:51:00,66.0,-29.0,-100.00,NNW,346,1.0,5.0,0,0.00,,,0.00,0.000000,,2013-05-27 07:51:00,
2013-05-26 22:11:00,66.0,-29.0,-100.00,NNW,346,1.0,5.0,0,0.00,,,0.00,0.000000,,2013-05-27 08:11:00,
2013-05-26 22:21:00,66.0,-29.0,-100.00,NNW,346,1.0,5.0,0,0.00,,,0.00,0.000000,,2013-05-27 08:21:00,
2013-05-26 22:32:00,66.0,-29.0,-100.00,NNW,346,1.0,5.0,0,0.00,,,0.00,0.000000,,2013-05-27 08:32:00,
2013-05-26 22:42:00,66.0,-29.0,-100.00,NNW,346,1.0,5.0,0,0.00,,,0.00,0.000000,,2013-05-27 08:42:00,
2013-05-26 22:51:00,67.0,-29.0,-100.00,North,350,1.0,7.0,0,0.00,,,0.00,0.000000,,2013-05-27 08:51:00,
2013-05-26 23:11:00,67.0,-29.0,-100.00,North,350,1.0,7.0,0,0.00,,,0.00,0.000000,,2013-05-27 09:11:00,
2013-05-26 23:21:00,67.0,-29.0,-100.00,North,350,1.0,7.0,0,0.00,,,0.00,0.000000,,2013-05-27 09:21:00,
2013-05-26 23:33:00,67.0,-29.0,-100.00,North,350,1.0,7.0,0,0.00,,,0.00,0.000000,,2013-05-27 09:33:00,
2013-05-26 23:42:00,67.0,-29.0,-100.00,North,350,1.0,7.0,0,0.00,,,0.00,0.000000,,2013-05-27 09:42:00,
2013-05-26 23:51:00,66.0,-29.0,-100.00,North,359,1.0,4.0,0,0.00,,,0.00,0.000000,,2013-05-27 09:51:00,